Regional Weather Roundup
Issued by NWS

Home | Current Version | Previous Version | Graphics & Text | Print | Product List | Glossary On
Versions: 1 2 3 4 5 6 7 8 9 10 11 12 13 14 15 16 17 18 19 20 21 22 23 24 25 26 27 28 29 30 31 32 33 34 35 36 37 38 39 40 41 42 43 44 45 46 47 48 49 50
000
ASUS43 KLOT 041308
RWRIL

ILLINOIS REGIONAL WEATHER ROUNDUP
NATIONAL WEATHER SERVICE CHICAGO/ROMEOVILLE IL
800 AM CDT FRI SEP 04 2015

NOTE: "FAIR" INDICATES FEW OR NO CLOUDS BELOW 12,000 FEET WITH NO
SIGNIFICANT WEATHER AND/OR OBSTRUCTIONS TO VISIBILITY.

* THESE STATIONS ARE NOT UNDER NWS QUALITY CONTROL. THEY ALSO MAY NOT
  REPORT WEATHER SUCH AS PRECIPITATION OR FOG.

ILZ001-002-007-009-015-016-024-041400-
NORTHWEST ILLINOIS

CITY           SKY/WX    TMP DP  RH WIND       PRES   REMARKS
MOLINE         SUNNY     73  69  87 CALM      29.98R
STERLING*      SUNNY     70  70 100 E7        29.98R
SAVANNA*       SUNNY     70  67  90 E3        29.99R FOG
$$

ILZ003-004-008-010-011-017-018-041400-
NORTH CENTRAL ILLINOIS

CITY           SKY/WX    TMP DP  RH WIND       PRES   REMARKS
ROCKFORD       MOSUNNY   70  66  87 E5        30.02R
FREEPORT*      MOSUNNY   67  66  97 E5        30.03R FOG
ROCHELLE*      SUNNY     69  67  94 CALM      30.02R FOG
DE KALB*       SUNNY     70  68  93 CALM      30.03R FOG
PERU*          MOSUNNY   72  69  90 E3        30.01R FOG
$$

ILZ005-006-012>014-019>023-041400-
NORTHEAST ILLINOIS

CITY           SKY/WX    TMP DP  RH WIND       PRES   REMARKS
CHICAGO-OHARE  MOSUNNY   71  66  84 E7        30.01R
CHICAGO-MIDWAY MOSUNNY   75  67  76 E6        30.00R
AURORA         SUNNY     71  68  90 CALM      30.02R FOG
LANSING*       MOSUNNY   72  68  88 CALM      30.01S
JOLIET*        SUNNY     74  70  87 CALM      30.01R
WAUKEGAN       CLOUDY    63  63 100 NE6       30.01S FOG
DUPAGE AIRPORT MOSUNNY   71  67  87 CALM      30.01R
KANKAKEE*      SUNNY     71  68  93 SE3       30.02S FOG
WHEELING       CLOUDY    69  65  86 NE6       30.03R
MORRIS*        SUNNY     70  68  93 CALM      30.00R FOG
ROMEOVILLE*    SUNNY     71  68  89 CALM      30.01S
NORTHERLY ISL    N/A     69  66  90 N5          N/A
$$

LMZ740>746-041400-
SOUTHERN LAKE MICHIGAN

STATION/POSITION SKY/WX   TEMP    WIND        PRES    VSBY  WAVE
                          AIR SEA DIR/SP/G                  HT/PER
                          (F)     (DEG/KT/KT) (MB)    (MI)  (FT/S)
SOUTHERN BUOY              65 71  320/  8/ 10 1015.5R         1/ 4
WILMETTE HARBOR            68 69  180/  4/  6   N/A           1/ 4
HARRISON CRIB              69     360/  7/  8   N/A
BURNHAM HARBOR             70     340/  4/  7   N/A
CALUMET HARBOR             69      30/  2/  3   N/A
MICHIGAN CITY              71      20/  5/  6   N/A
MICHIGAN CITY 6N           71 73   50/  2/  4   N/A           1/ 4
ST. JOSEPH                 71 73   40/  4/  6   N/A           2/ 4
$$

ILZ025>027-034>036-040-047-049-050-058-095>099-041400-
WEST-CENTRAL ILLINOIS

CITY           SKY/WX    TMP DP  RH WIND       PRES   REMARKS
QUINCY         SUNNY     75  70  84 S3        30.00R
GALESBURG*     SUNNY     72  69  89 CALM      30.00R
MACOMB*        SUNNY     73  69  89 CALM      30.02R
JACKSONVILLE*  SUNNY     78  71  78 CALM      30.01R HX  81
PITTSFIELD*    SUNNY     76  70  82 CALM      30.02R
$$

ILZ028>032-037-038-041>044-048-051>054-059>061-041400-
CENTRAL ILLINOIS

CITY           SKY/WX    TMP DP  RH WIND       PRES   REMARKS
PONTIAC        SUNNY     73  71  95 S3        30.01R FOG
BLOOMINGTON    SUNNY     74  70  87 S6        30.03R
DECATUR        SUNNY     75  68  78 SW3       30.02R
PEORIA         MOSUNNY   76  70  82 S3        30.00R
LACON*         SUNNY     72  69  92 CALM      29.99R
LINCOLN*       SUNNY     74  67  80 CALM      30.00S
SPRINGFIELD    SUNNY     77  70  79 CALM      30.01R
TAYLORVILLE    SUNNY     73  70  88 CALM      30.02R
$$

ILZ033-039-045-046-055>057-062-063-041400-
EAST-CENTRAL ILLINOIS

CITY           SKY/WX    TMP DP  RH WIND       PRES   REMARKS
CHAMPAIGN      SUNNY     73  69  87 CALM      30.03R
RANTOUL*       MOSUNNY   75  70  84 S3        30.02R
MATTOON        SUNNY     76  68  76 SW5       30.03R
PARIS*         MOSUNNY   72  70  93 CALM      30.04R
$$

ILZ079-100>102-041400-
SOUTHWEST ILLINOIS

CITY           SKY/WX    TMP DP  RH WIND       PRES   REMARKS
ALTON          SUNNY     72  72 100 SE6       30.02R FOG
BELLEVILLE     SUNNY     73  73 100 CALM      30.01R
CAHOKIA*       SUNNY     75  70  84 CALM      30.01R HAZE
SPARTA*        SUNNY     73  71  92 CALM      30.04R
$$

ILZ064>066-069>071-074>076-080>082-084>086-088>090-092>094-041400-
SOUTH-CENTRAL ILLINOIS

CITY           SKY/WX    TMP DP  RH WIND       PRES   REMARKS
CARBONDALE     MOSUNNY   72  70  93 CALM      30.03S FOG
CAIRO*         SUNNY     71  71 100 CALM      30.03R FOG
EFFINGHAM*     SUNNY     73  69  85 CALM      30.05R
MARION         MOSUNNY   73  72  94 CALM      30.04R
MT. VERNON     SUNNY     72  66  83 CALM      30.04R
CENTRALIA*     SUNNY     73  71  93 CALM      30.03R
SALEM*         SUNNY     76  71  85 CALM      30.03R
METROPOLIS*    SUNNY     72  71  98 CALM      30.04R FOG
$$

ILZ067-068-072-073-078-083-087-091-041400-
SOUTHEAST ILLINOIS

CITY           SKY/WX    TMP DP  RH WIND       PRES   REMARKS
LAWRENCEVILLE  SUNNY     73  70  90 CALM      30.04R FOG
FLORA*         SUNNY     72  69  89 CALM      30.04R
FAIRFIELD*     SUNNY     72  69  91 CALM      30.03R
HARRISBURG*    MOSUNNY   70  70  98 CALM      30.04R FOG
ROBINSON*      MOSUNNY   72  70  94 CALM      30.04R
CARMI*         SUNNY     71  71  99 CALM      30.03R FOG
$$

ABBREVIATIONS USED IN REMARKS
   TC - TEMPERATURE IN CELSIUS
  WCI - WIND CHILL INDEX
   HX - HEAT INDEX
  VSB - VISIBILITY
$$




USA.gov is the U.S. government's official web portal to all federal, state and local government web resources and services.